sat.trackr.live / text

‹ back to catalog

DONGPO 08

NORAD 54686 · 2022-167E

PAYLOAD ACTIVE UNKNOWN

§ Identity

Operator
Country
PRC
Launch date
2022-12-09
Launch site
SEAL
Launch vehicle
Mass (kg)
RCS (m²)

External: N2YO · Heavens-Above · Gunter

§ Orbital elements

Epoch: 2026-05-25T05:23:43.865664Z

Period
93.93 min
Inclination
97.6848°
Eccentricity
0.0006985
Mean motion
15.33121429 rev/d
Perigee alt
461.7 km
Apogee alt
471.3 km
Semi-major
6,844.6 km
B*
3.0883e-4
RAAN
312.5055°
Arg perigee
242.7550°
Mean anomaly
117.2980°
Rev number
19,180

§ Raw data

DONGPO 081 54686U 22167E   26145.22481326  .00009808  00000+0  30883-3 0  99922 54686  97.6848 312.5055 0006985 242.7550 117.2980 15.33121429191805

JSON: /api/v1/satellites/54686 · /tle

For live sub-satellite position, see the globe view (requires WebGL).

§ Visibility from observer

Set your observer location to see the next 7 days of passes ≥ 10°. The values pass through the URL so the page stays shareable.

No JS? Fill the form by hand. The geolocation button needs JavaScript.

§ Radio — SatNOGS DB

ModeDescriptionDownlinkUplink
FM Jillin Mysterious Pip 1.616 GHz

1 transmitter · refreshed weekly from db.satnogs.org